When you browse on this site, cookies collect data to enhance your experience and personalize the content and advertising you see.
Visit our Privacy Policy to learn more. By continuing to use the site, you agree to this use of cookies and data.
  • In Österreich
  • Länderverzeichnis
  • Für 7 Tage
  • Wassertemperatur
  • Wetterkarte
  • News
  • Widgets
  • user-avatar
    Anmelden

    Stündliche Wetter San Francisco

    Heute, 17 September, Dienstag

    Zeit Temperatur Niederschläge Wind Luftdruck Luftfeuchtigkeit
    00:00 +19°C° 0.1 mm 1 m/S 637 mmHg 90%
    01:00 +19°C° 0.1 mm 1 m/S 637 mmHg 90%
    02:00 +18°C° 0.1 mm 1 m/S 636 mmHg 89%
    03:00 +18°C° 0.1 mm 1 m/S 636 mmHg 89%
    04:00 +18°C° 0.1 mm 1 m/S 636 mmHg 88%
    05:00 +19°C° 0.1 mm 1 m/S 637 mmHg 86%
    06:00 +19°C° 0.1 mm 1 m/S 637 mmHg 84%
    07:00 +20°C° 0.1 mm 1 m/S 638 mmHg 81%
    08:00 +22°C° 0.2 mm 1 m/S 639 mmHg 75%
    09:00 +24°C° 0.2 mm 1 m/S 639 mmHg 69%
    10:00 +26°C° 0.2 mm 1 m/S 640 mmHg 63%
    11:00 +26°C° 0.7 mm 1 m/S 639 mmHg 65%
    12:00 +26°C° 0.7 mm 2 m/S 638 mmHg 68%
    13:00 +26°C° 0.7 mm 2 m/S 637 mmHg 70%
    14:00 +26°C° 1.3 mm 1 m/S 637 mmHg 72%
    15:00 +26°C° 1.3 mm 1 m/S 636 mmHg 73%
    16:00 +25°C° 1.3 mm 1 m/S 636 mmHg 74%
    17:00 +24°C° 2.1 mm 1 m/S 636 mmHg 80%
    18:00 +23°C° 2.1 mm 1 m/S 636 mmHg 85%
    19:00 +21°C° 2.1 mm 1 m/S 636 mmHg 90%
    20:00 +21°C° 1 mm 1 m/S 636 mmHg 90%
    21:00 +20°C° 1 mm 1 m/S 637 mmHg 89%
    22:00 +20°C° 1 mm 1 m/S 637 mmHg 89%
    23:00 +20°C° 0.6 mm 1 m/S 637 mmHg 90%

    Morgen, 18 September, Mittwoch

    Zeit Temperatur Niederschläge Wind Luftdruck Luftfeuchtigkeit
    00:00 +19°C° 0.6 mm 1 m/S 637 mmHg 91%
    01:00 +19°C° 0.6 mm 1 m/S 637 mmHg 92%
    02:00 +17°C° 0.5 mm 0 m/S 637 mmHg 93%
    03:00 +17°C° 0.5 mm 0 m/S 636 mmHg 94%
    04:00 +17°C° 0.5 mm 0 m/S 636 mmHg 94%
    05:00 +17°C° 0.5 mm 0 m/S 637 mmHg 94%
    06:00 +17°C° 0.5 mm 0 m/S 637 mmHg 93%
    07:00 +18°C° 0.5 mm 0 m/S 638 mmHg 93%
    08:00 +18°C° 0.3 mm 0 m/S 638 mmHg 91%
    09:00 +19°C° 0.3 mm 0 m/S 638 mmHg 89%
    10:00 +21°C° 0.3 mm 1 m/S 638 mmHg 88%
    11:00 +23°C° 0.1 mm 1 m/S 638 mmHg 79%
    12:00 +25°C° 0.1 mm 1 m/S 638 mmHg 71%
    13:00 +26°C° 0.1 mm 2 m/S 637 mmHg 63%
    14:00 +26°C° 0.3 mm 2 m/S 637 mmHg 65%
    15:00 +26°C° 0.3 mm 2 m/S 636 mmHg 67%
    16:00 +25°C° 0.3 mm 1 m/S 635 mmHg 69%
    17:00 +24°C° 0.6 mm 1 m/S 635 mmHg 77%
    18:00 +22°C° 0.6 mm 1 m/S 635 mmHg 85%
    19:00 +19°C° 0.6 mm 0 m/S 635 mmHg 93%
    20:00 +21°C° 1.9 mm 1 m/S 636 mmHg 93%
    21:00 +20°C° 1.9 mm 1 m/S 636 mmHg 94%
    22:00 +20°C° 1.9 mm 1 m/S 637 mmHg 94%
    23:00 +20°C° 0.6 mm 1 m/S 636 mmHg 93%

    übermorgen, 19 September, Donnerstag

    Zeit Temperatur Niederschläge Wind Luftdruck Luftfeuchtigkeit
    00:00 +20°C° 0.6 mm 1 m/S 636 mmHg 92%
    01:00 +20°C° 0.6 mm 1 m/S 636 mmHg 92%
    02:00 +19°C° 0 mm 1 m/S 636 mmHg 91%
    03:00 +17°C° 0 mm 0 m/S 636 mmHg 90%
    04:00 +17°C° 0 mm 0 m/S 636 mmHg 89%
    05:00 +18°C° 0 mm 0 m/S 636 mmHg 88%
    06:00 +18°C° 0 mm 0 m/S 637 mmHg 87%
    07:00 +18°C° 0 mm 0 m/S 637 mmHg 86%
    08:00 +19°C° 0.1 mm 0 m/S 637 mmHg 83%
    09:00 +22°C° 0.1 mm 1 m/S 638 mmHg 79%
    10:00 +23°C° 0.1 mm 1 m/S 638 mmHg 76%
    11:00 +24°C° 0.5 mm 1 m/S 637 mmHg 75%
    12:00 +25°C° 0.5 mm 1 m/S 637 mmHg 73%
    13:00 +26°C° 0.5 mm 2 m/S 636 mmHg 71%
    14:00 +25°C° 1.6 mm 1 m/S 636 mmHg 77%
    15:00 +24°C° 1.6 mm 1 m/S 635 mmHg 83%
    16:00 +23°C° 1.6 mm 1 m/S 635 mmHg 88%
    17:00 +22°C° 1.9 mm 1 m/S 635 mmHg 91%
    18:00 +21°C° 1.9 mm 1 m/S 635 mmHg 93%
    19:00 +21°C° 1.9 mm 1 m/S 635 mmHg 96%
    20:00 +20°C° 0.6 mm 1 m/S 636 mmHg 95%
    21:00 +18°C° 0.6 mm 0 m/S 636 mmHg 95%
    22:00 +18°C° 0.6 mm 0 m/S 636 mmHg 95%
    23:00 +18°C° 0.3 mm 0 m/S 636 mmHg 95%

    20 September, Freitag

    Zeit Temperatur Niederschläge Wind Luftdruck Luftfeuchtigkeit
    00:00 +17°C° 0.3 mm 0 m/S 636 mmHg 95%
    01:00 +17°C° 0.3 mm 0 m/S 636 mmHg 95%
    02:00 +17°C° 1.4 mm 0 m/S 636 mmHg 95%
    03:00 +17°C° 1.4 mm 0 m/S 636 mmHg 96%
    04:00 +17°C° 1.4 mm 0 m/S 636 mmHg 96%
    05:00 +17°C° 2.4 mm 0 m/S 637 mmHg 96%
    06:00 +17°C° 2.4 mm 0 m/S 637 mmHg 96%
    07:00 +17°C° 2.4 mm 0 m/S 638 mmHg 96%
    08:00 +18°C° 1.4 mm 0 m/S 638 mmHg 95%
    09:00 +18°C° 1.4 mm 0 m/S 639 mmHg 94%
    10:00 +18°C° 1.4 mm 0 m/S 639 mmHg 93%
    11:00 +21°C° 0.6 mm 1 m/S 639 mmHg 91%
    12:00 +22°C° 0.6 mm 1 m/S 639 mmHg 90%
    13:00 +21°C° 0.6 mm 2 m/S 638 mmHg 89%
    14:00 +22°C° 0.7 mm 1 m/S 638 mmHg 90%
    15:00 +22°C° 0.7 mm 1 m/S 637 mmHg 90%
    16:00 +21°C° 0.7 mm 1 m/S 637 mmHg 91%
    17:00 +21°C° 0.2 mm 1 m/S 637 mmHg 91%
    18:00 +20°C° 0.2 mm 1 m/S 637 mmHg 91%
    19:00 +19°C° 0.2 mm 1 m/S 637 mmHg 92%
    20:00 +19°C° 0.1 mm 1 m/S 637 mmHg 90%
    21:00 +19°C° 0.1 mm 1 m/S 637 mmHg 89%
    22:00 +19°C° 0.1 mm 1 m/S 638 mmHg 88%
    23:00 +19°C° 0 mm 1 m/S 637 mmHg 88%

    21 September, Samstag

    Zeit Temperatur Niederschläge Wind Luftdruck Luftfeuchtigkeit
    00:00 +18°C° 0 mm 1 m/S 637 mmHg 89%
    01:00 +18°C° 0 mm 1 m/S 637 mmHg 89%
    02:00 +18°C° 0 mm 1 m/S 637 mmHg 89%
    03:00 +18°C° 0 mm 1 m/S 637 mmHg 89%
    04:00 +18°C° 0 mm 1 m/S 637 mmHg 89%
    05:00 +18°C° 0 mm 1 m/S 638 mmHg 87%
    06:00 +19°C° 0 mm 1 m/S 638 mmHg 85%
    07:00 +20°C° 0 mm 1 m/S 639 mmHg 83%
    08:00 +22°C° 0 mm 1 m/S 639 mmHg 77%
    09:00 +23°C° 0 mm 1 m/S 640 mmHg 70%
    10:00 +25°C° 0 mm 1 m/S 640 mmHg 64%
    11:00 +26°C° 0.8 mm 1 m/S 640 mmHg 65%
    12:00 +26°C° 0.8 mm 1 m/S 639 mmHg 66%
    13:00 +27°C° 0.8 mm 2 m/S 638 mmHg 67%
    14:00 +26°C° 1.3 mm 1 m/S 638 mmHg 69%
    15:00 +26°C° 1.3 mm 1 m/S 637 mmHg 71%
    16:00 +25°C° 1.3 mm 1 m/S 636 mmHg 73%
    17:00 +24°C° 1.1 mm 1 m/S 636 mmHg 77%
    18:00 +22°C° 1.1 mm 1 m/S 636 mmHg 82%
    19:00 +20°C° 1.1 mm 1 m/S 636 mmHg 87%
    20:00 +19°C° 0.4 mm 1 m/S 637 mmHg 87%
    21:00 +19°C° 0.4 mm 1 m/S 637 mmHg 86%
    22:00 +19°C° 0.4 mm 1 m/S 637 mmHg 86%
    23:00 +17°C° 0.1 mm 2 m/S 637 mmHg 86%

    22 September, Sonntag

    Zeit Temperatur Niederschläge Wind Luftdruck Luftfeuchtigkeit
    00:00 +17°C° 0.1 mm 2 m/S 637 mmHg 85%
    01:00 +17°C° 0.1 mm 2 m/S 636 mmHg 85%
    02:00 +18°C° 0.1 mm 1 m/S 636 mmHg 84%
    03:00 +18°C° 0.1 mm 1 m/S 636 mmHg 83%
    04:00 +18°C° 0.1 mm 1 m/S 636 mmHg 82%
    05:00 +18°C° 0 mm 1 m/S 637 mmHg 80%
    06:00 +19°C° 0 mm 1 m/S 638 mmHg 79%
    07:00 +20°C° 0 mm 1 m/S 638 mmHg 77%
    08:00 +22°C° 0.1 mm 1 m/S 639 mmHg 72%
    09:00 +24°C° 0.1 mm 1 m/S 639 mmHg 67%
    10:00 +26°C° 0.1 mm 1 m/S 640 mmHg 63%
    11:00 +26°C° 0.8 mm 1 m/S 639 mmHg 67%
    12:00 +25°C° 0.8 mm 1 m/S 638 mmHg 71%
    13:00 +25°C° 0.8 mm 1 m/S 637 mmHg 76%
    14:00 +25°C° 1.7 mm 1 m/S 637 mmHg 77%
    15:00 +25°C° 1.7 mm 1 m/S 637 mmHg 78%
    16:00 +24°C° 1.7 mm 1 m/S 636 mmHg 79%
    17:00 +23°C° 1.2 mm 1 m/S 636 mmHg 83%
    18:00 +21°C° 1.2 mm 1 m/S 636 mmHg 87%
    19:00 +20°C° 1.2 mm 1 m/S 636 mmHg 91%
    20:00 +20°C° 1.5 mm 1 m/S 637 mmHg 91%
    21:00 +19°C° 1.5 mm 1 m/S 637 mmHg 92%
    22:00 +19°C° 1.5 mm 1 m/S 638 mmHg 92%
    23:00 +19°C° 0.1 mm 1 m/S 637 mmHg 92%
    Mehr zeigen